Location: Doverdale
(52.2833°N, 2.2000°W)
Time: 02:20:29
(UTC+00:00)

SKYMED 2 - Pass Details

Date: 29 October 2020
Orbit: 621 x 623 km, 97.9° (Epoch: 24 November)

Event Time Altitude Azimuth Distance (km) Brightness Sun altitude
Rises 17:48:36 0° 20° (NNE) 2,917 6.7 -10.3°
Reaches altitude 10° 17:50:56 10° 28° (NNE) 2,005 5.8 -10.6°
Maximum altitude 17:55:01 38° 97° (E) 955 4.0 -11.2°
Drops below altitude 10° 17:59:04 10° 166° (SSE) 1,989 6.1 -11.9°
Sets 18:01:22 0° 175° (S) 2,890 7.0 -12.2°
